Location: Nitra
(0.0000°N, 18.0833°E)
Time: 06:40:24
(UTC+02:00)

CAS-4B - Visible Passes

Search period start: 31 May 2023 00:00
Search period end: 10 June 2023 00:00
Orbit: 507 x 522 km, 43.0° (Epoch: 30 May)

Date Brightness Start Highest point End Pass type
(mag) Time Alt. Az. Time Alt. Az. Time Alt. Az.
03 Jun ? 20:09:00 10° SSW 20:11:13 28° S 20:11:13 28° S visible
04 Jun ? 19:51:16 10° SSW 19:55:05 50° SE 19:57:07 24° ENE visible
05 Jun ? 19:33:35 10° SW 19:37:28 64° SE 19:41:20 10° NE visible
06 Jun ? 19:15:55 10° SW 19:19:51 81° SE 19:23:44 10° NE visible
09 Jun ? 04:55:40 10° NE 04:56:05 10° NE 04:56:30 10° NE visible
